[[{"header":{"parameterUnit":"m.s-1","parameterCategory":1,"la1":30.2991,"la2":30.254,"lo1":-89.0895,"lo2":-89.0444,"dy":0.0017,"dx":0.0017,"nx":28,"ny":28,"refTime":"2025-06-06T03:00:00:Z","depth":0,"parameterNumber":2,"parameterNumberName":"U-component_of_WINDS"},"data":[0,0,0,0,0,0,0,0,0,0,0,0,0,0,0,0,0,0,0,0,0,0,0,0,0,0,0,0,0,0,0,0,0,0,0,0,0,0,0,0,0,0,0,0,0,0,0,0,0,0,0,0,0,0,0,0,0,0,4.5392,4.5393,0,4.5491,4.5493,4.5494,4.5432,4.5429,4.5426,4.5423,4.5525,4.553,4.5535,0,0,0,0,0,0,0,0,0,0,0,0,0,4.5145,4.515,4.5392,4.5393,4.5394,4.5491,4.5493,4.5494,4.5432,4.5428,4.5425,4.5422,4.5523,4.5529,4.5536,0,0,0,0,0,0,0,0,0,0,0,0,0,4.5249,4.5151,4.5391,4.5375,4.5374,4.5491,4.5493,4.5494,4.5433,4.5428,4.5424,4.542,4.5521,4.5529,4.5537,4.5675,0,0,4.5562,4.5565,0,0,0,0,0,0,0,0,4.5243,4.5258,4.5376,4.5376,4.5376,4.5445,4.5443,4.5555,4.5434,4.5411,4.5423,4.5418,4.5501,4.5511,4.5539,4.568,4.5684,4.5562,4.5567,4.5571,4.5573,0,0,0,0,0,0,0,4.5236,4.5254,4.5431,4.5378,4.5378,4.5362,4.5372,4.5464,4.5479,4.5412,4.5408,4.5421,4.5501,4.5532,4.5541,4.5686,4.5562,4.5569,4.5574,4.5578,4.594,4.5945,0,0,0,0,0,0,4.523,4.5248,4.5428,4.5434,4.5297,4.537,4.5381,4.5427,4.5478,4.5482,4.5424,4.5417,4.552,4.5532,4.5545,4.5706,4.5571,4.5578,4.5583,4.5936,4.5941,4.5946,0,0,0,0,0,0,4.5225,4.5247,4.5424,4.534,4.5361,4.5379,4.5431,4.5431,4.5462,4.5487,4.549,4.5453,4.5517,4.5533,4.5642,4.5709,4.5582,4.5589,4.593,4.5937,4.5944,4.6033,0,0,0,0,0,0,4.5219,4.5246,4.5299,4.5342,4.5366,4.5521,4.5435,4.5436,4.5476,4.5468,4.5515,4.5519,4.5515,4.563,4.565,4.5718,4.5596,4.5924,4.5933,4.5942,4.6024,4.6042,4.6058,0,0,0,0,0,4.521,4.5321,4.5302,4.5324,4.5433,4.5525,4.5538,4.5532,4.5482,4.5535,4.5551,4.5517,4.5699,4.5642,4.5664,4.5735,4.592,4.5931,4.5941,4.6016,4.6039,4.6057,0,0,0,0,0,0,4.5286,4.5326,4.5306,4.5434,4.5476,4.5514,4.558,4.5556,4.5613,4.5603,4.5592,4.5603,4.5716,4.5737,4.5673,4.587,4.5801,4.5817,4.5851,4.5873,4.5889,4.588,4.5603,0,0,0,0,0,4.5317,4.5389,4.542,4.553,4.5552,4.5563,4.5603,4.5594,4.5637,4.5655,4.5679,4.5722,4.5788,4.5832,4.5895,4.6028,4.6035,4.6088,4.6104,4.6118,4.613,4.6198,4.6221,4.5982,4.5981,4.5981,0,0,4.5383,4.5414,4.546,4.5546,4.5578,4.565,4.5578,4.566,4.5713,4.5667,4.577,4.579,4.5837,4.5957,4.6011,4.5978,4.6199,4.6132,4.6143,4.6147,4.6212,4.6234,4.6254,4.5989,4.5987,4.5986,0,0,4.5539,4.5572,4.5664,4.5698,4.5747,4.5753,4.5775,4.5817,4.5827,4.5931,4.5897,4.5961,4.6077,4.611,4.6143,4.6311,4.628,4.6332,4.6419,4.6485,4.6504,4.652,4.6576,4.6597,4.6345,4.6345,4.6345,0,4.5614,4.5723,4.5716,4.5798,4.5835,4.5798,4.5891,4.5923,4.5991,4.6017,4.5979,4.6121,4.6151,4.6276,4.6317,4.6346,4.6369,4.6325,4.6502,4.6518,4.6533,4.6586,4.6608,4.6351,4.635,4.635,4.6349,0,4.5811,4.5887,4.5957,4.6021,4.6067,4.6155,4.6159,4.6206,4.6194,4.6203,4.6308,4.6342,4.6409,4.644,4.6429,4.6563,4.654,4.6503,4.6433,4.6562,4.6611,4.6632,4.6359,4.6357,4.6355,4.6354,0,0,4.6016,4.6075,4.61,4.6127,4.6178,4.6236,4.6322,4.6387,4.6426,4.6474,4.6543,4.6642,4.6606,4.6643,4.6636,4.6694,4.682,4.6649,4.665,4.6676,4.6966,4.6991,4.7015,4.6802,4.6806,4.6809,4.696,0,4.6171,4.632,4.6315,4.6452,4.652,4.6486,4.6559,4.6598,4.661,4.6668,4.6681,4.6749,4.67,4.6721,4.6778,4.6793,4.6877,4.6782,4.6863,4.6866,4.6848,4.7041,4.7068,4.7209,4.698,4.6983,4.6986,0,4.6373,4.6426,4.657,4.6608,4.6636,4.6703,4.6761,4.6819,4.6861,4.6865,4.6906,4.6889,4.6973,4.6904,4.7019,4.6954,4.6987,4.7,4.7005,4.7009,4.6931,4.7046,4.7255,4.7274,4.7017,4.7015,4.7012,0,4.6502,4.661,4.6709,4.6735,4.6783,4.683,4.6852,4.689,4.6929,4.698,4.7005,4.7066,4.7099,4.7146,4.7144,4.7095,4.7259,4.7191,4.7262,4.7262,4.7295,4.7292,4.7508,4.7324,4.7324,4.7323,4.7323,0,4.6674,4.6762,4.6767,4.6828,4.6925,4.6919,4.7015,4.7033,4.7067,4.7129,4.7104,4.7163,4.716,4.7219,4.7219,4.7312,4.7328,4.7332,4.733,4.7331,4.733,4.735,4.7338,4.7329,4.7328,4.7327,4.7326,0,4.6833,4.6841,4.6945,4.6983,4.6994,4.7064,4.7094,4.7151,4.7161,4.7239,4.7258,4.7272,4.734,4.7345,4.7425,4.7424,4.7535,4.7525,4.752,4.7517,4.7586,4.7578,4.7818,4.7847,4.7649,4.7651,4.7652,0,4.694,4.7007,4.7051,4.709,4.7115,4.718,4.7219,4.7216,4.7257,4.7309,4.7359,4.7425,4.7477,4.7587,4.7604,4.7664,4.7652,4.7733,4.7661,4.7659,4.7648,4.7642,4.7647,4.7745,4.7747,4.7749,4.7751,0,4.7127,4.7127,4.7185,4.7244,4.7291,4.7337,4.738,4.7414,4.7416,4.7464,4.7533,4.7573,4.7653,4.7718,4.7776,4.7797,4.7773,4.7774,4.7792,4.7792,4.7785,4.7785,4.7553,4.7767,4.7765,4.7764,4.7763,4.7763,4.7261,4.7317,4.7356,4.742,4.7452,4.7492,4.7546,4.7562,4.762,4.7684,4.7679,4.7755,4.7794,4.7869,4.7895,4.7953,4.7926,4.7954,4.7961,4.7967,4.7972,4.778,4.7965,4.7964,4.7964,4.7964,4.7963,0,4.7443,4.7466,4.7526,4.7586,4.7636,4.7611,4.7656,4.7699,4.7766,4.7805,4.7856,4.7934,4.7996,4.8018,4.8078,4.812,4.811,4.8135,4.813,4.8134,4.7995,4.7971,4.8142,4.8142,4.8142,4.8142,4.8142,4.8142,4.7543,4.7636,4.7641,4.7748,4.7771,4.7844,4.7872,4.7908,4.7938,4.8026,4.8078,4.8092,4.8123,4.8185,4.824,4.8245,4.8266,4.8295,4.8295,4.8163,4.8145,4.8127,4.8104,4.8301,4.8301,4.8428,4.843,4.843]},{"header":{"parameterUnit":"m.s-1","parameterCategory":1,"la1":30.2991,"la2":30.254,"lo1":-89.0895,"lo2":-89.0444,"dy":0.0017,"dx":0.0017,"nx":28,"ny":28,"refTime":"2025-06-06T03:00:00:Z","depth":0,"parameterNumber":3,"parameterNumberName":"V-component_of_WINDS"},"data":[0,0,0,0,0,0,0,0,0,0,0,0,0,0,0,0,0,0,0,0,0,0,0,0,0,0,0,0,0,0,0,0,0,0,0,0,0,0,0,0,0,0,0,0,0,0,0,0,0,0,0,0,0,0,0,0,0,0,3.9633,3.9635,0,3.9759,3.9761,3.9762,3.9746,3.9744,3.9742,3.974,3.9866,3.9871,3.9876,0,0,0,0,0,0,0,0,0,0,0,0,0,3.9375,3.938,3.9633,3.9635,3.9636,3.9759,3.9761,3.9762,3.9746,3.9744,3.9741,3.9739,3.9864,3.987,3.9876,0,0,0,0,0,0,0,0,0,0,0,0,0,3.9492,3.9381,3.9633,3.9643,3.9645,3.9759,3.9761,3.9763,3.9747,3.9744,3.9741,3.9738,3.9862,3.9869,3.9877,3.9987,0,0,3.9901,3.9905,0,0,0,0,0,0,0,0,3.9486,3.9502,3.964,3.9643,3.9645,3.9734,3.9716,3.9838,3.9748,3.9708,3.974,3.9736,3.9824,3.9835,3.9865,3.9993,3.9999,3.9902,3.9907,3.991,3.9912,0,0,0,0,0,0,0,3.9478,3.9496,3.9683,3.9642,3.9645,3.964,3.9654,3.9739,3.9782,3.9711,3.9711,3.9726,3.9825,3.9858,3.9868,4.0,3.9902,3.9909,3.9914,3.9917,4.0223,4.0226,0,0,0,0,0,0,3.9467,3.949,3.9679,3.9687,3.9557,3.9647,3.9662,3.9708,3.9781,3.9789,3.9728,3.9725,3.9846,3.9859,3.9872,4.0005,3.991,3.9918,3.9922,4.022,4.0224,4.0228,0,0,0,0,0,0,3.9462,3.9484,3.9674,3.9588,3.9612,3.9655,3.9707,3.9713,3.9745,3.9794,3.9801,3.9754,3.9844,3.9861,3.9959,4.0009,3.9921,3.9928,4.0216,4.0221,4.0226,4.0271,0,0,0,0,0,0,3.9455,3.9483,3.9526,3.9589,3.9617,3.976,3.971,3.9717,3.9759,3.9756,3.982,3.9827,3.9843,3.9947,3.9966,4.0018,3.9934,4.0211,4.0218,4.0224,4.0266,4.0277,4.0288,0,0,0,0,0,3.9445,3.9533,3.9528,3.9551,3.9672,3.9763,3.9778,3.9795,3.9764,3.9807,3.9837,3.9825,4.0,3.9957,3.9979,4.0034,4.0208,4.0216,4.0224,4.0261,4.0275,4.0287,0,0,0,0,0,0,3.9474,3.9542,3.9537,3.9648,3.97,3.976,3.9815,3.981,3.9871,3.9865,3.9882,3.9896,3.9994,4.0024,3.9974,4.0143,4.01,4.0112,4.012,4.0135,4.0145,4.0136,3.9941,0,0,0,0,0,3.9494,3.9563,3.9618,3.9711,3.9737,3.9772,3.9812,3.982,3.9874,3.9895,3.9933,3.9985,4.0051,4.0094,4.0158,4.027,4.0282,4.0318,4.0329,4.0338,4.0348,4.0407,4.0423,4.0253,4.0253,4.0253,0,0,3.9534,3.958,3.9622,3.9718,3.9759,3.9829,3.979,3.9866,3.9918,3.9906,4.0001,4.003,4.0089,4.0193,4.0241,4.0221,4.0398,4.0347,4.0354,4.036,4.0417,4.0433,4.0447,4.0258,4.0257,4.0256,0,0,3.9644,3.9686,3.9768,3.9809,3.9872,3.9894,3.9914,3.9974,3.9994,4.0089,4.0082,4.0142,4.0257,4.0298,4.0334,4.0458,4.0449,4.0479,4.0536,4.0594,4.0607,4.0619,4.0662,4.0678,4.0489,4.0489,4.0489,0,3.9686,3.9793,3.981,3.9887,3.9928,3.9922,4.0003,4.0043,4.0122,4.015,4.0127,4.0269,4.0308,4.0422,4.0452,4.0482,4.0503,4.0471,4.0604,4.0616,4.0628,4.0669,4.0685,4.0492,4.0492,4.0491,4.0491,0,3.9841,3.9915,3.9973,4.0051,4.0099,4.0177,4.0205,4.0251,4.0255,4.0279,4.0375,4.0421,4.0494,4.0521,4.0526,4.0635,4.062,4.06,4.0557,4.0647,4.0686,4.0702,4.0497,4.0496,4.0495,4.0494,0,0,3.9973,4.0059,4.008,4.0114,4.0182,4.0239,4.0317,4.0388,4.0427,4.0482,4.0546,4.0643,4.0624,4.0665,4.0674,4.0725,4.0818,4.0698,4.07,4.0718,4.094,4.0954,4.0972,4.0813,4.0816,4.0818,4.0935,0,4.0088,4.0227,4.0244,4.0366,4.0434,4.0428,4.0495,4.0544,4.0568,4.0627,4.0654,4.0721,4.0693,4.0717,4.0767,4.0797,4.0863,4.0788,4.0871,4.0874,4.0856,4.0993,4.1009,4.1117,4.095,4.0953,4.0955,0,4.0242,4.0302,4.0431,4.0489,4.0518,4.0578,4.0644,4.0702,4.0756,4.077,4.0815,4.0817,4.0895,4.0849,4.0956,4.0905,4.094,4.0959,4.0964,4.0972,4.0919,4.1004,4.1151,4.1167,4.0979,4.0977,4.0975,0,4.0323,4.0436,4.0528,4.0558,4.0628,4.067,4.0701,4.0752,4.0794,4.0851,4.0878,4.0944,4.0979,4.1029,4.1048,4.1013,4.1154,4.111,4.1167,4.1166,4.1196,4.1194,4.1351,4.122,4.122,4.1219,4.1219,0,4.045,4.0529,4.0566,4.0622,4.071,4.0728,4.0814,4.0843,4.0888,4.0948,4.0947,4.1004,4.1026,4.1086,4.1101,4.1186,4.1203,4.1215,4.1218,4.1215,4.1213,4.1237,4.123,4.1224,4.1223,4.1222,4.1221,0,4.0556,4.0584,4.0683,4.0741,4.0758,4.082,4.0869,4.0922,4.0946,4.1022,4.1041,4.1077,4.1148,4.1172,4.1256,4.1266,4.1366,4.1363,4.1348,4.1348,4.1403,4.1397,4.1581,4.1605,4.1459,4.146,4.1461,0,4.0635,4.0696,4.076,4.0801,4.0834,4.09,4.0943,4.0962,4.1006,4.1071,4.1117,4.1187,4.1243,4.1355,4.1388,4.1453,4.1451,4.151,4.146,4.1455,4.145,4.1446,4.1452,4.1519,4.1521,4.1522,4.1523,0,4.0771,4.0782,4.0844,4.0911,4.0962,4.1015,4.1066,4.1099,4.1126,4.1175,4.1248,4.1292,4.1378,4.1447,4.1513,4.1542,4.1537,4.1539,4.1555,4.1552,4.1541,4.1547,4.1373,4.1534,4.1533,4.1532,4.1532,4.1531,4.0866,4.0919,4.0973,4.1041,4.1082,4.113,4.1183,4.1213,4.1274,4.1346,4.1354,4.1431,4.1482,4.1569,4.1602,4.1662,4.1645,4.1669,4.1675,4.168,4.1684,4.1532,4.1674,4.1674,4.1674,4.1673,4.1673,0,4.1001,4.1035,4.1098,4.117,4.1224,4.1215,4.1271,4.1316,4.1385,4.1433,4.1489,4.1571,4.1637,4.1675,4.1741,4.1782,4.1781,4.1798,4.1795,4.1802,4.1696,4.1675,4.1798,4.1798,4.1798,4.1798,4.1798,4.1798,4.1078,4.1167,4.1184,4.1293,4.1326,4.1403,4.1435,4.1478,4.1517,4.1609,4.1665,4.1689,4.1733,4.1802,4.1862,4.1871,4.1895,4.1914,4.1922,4.1822,4.1809,4.1797,4.1777,4.192,4.192,4.2022,4.2023,4.2024]}]]